Location: ????????
(60.4333°N, 46.4710°E)
Time: 19:31:02
(UTC+00:00)

Cosmos 2285 Rocket - Pass Details

Date: 25 November 2020
Orbit: 971 x 998 km, 74.0° (Epoch: 17 January)

Event Time Altitude Azimuth Distance (km) Brightness Sun altitude
Rises 12:47:07 0° 319° (NW) 3,731 7.1 -5.2°
Reaches altitude 10° 12:49:52 10° 326° (NNW) 2,777 6.4 -5.4°
Maximum altitude 12:55:56 41° 36° (NE) 1,409 4.5 -6.1°
Drops below altitude 10° 13:01:57 10° 106° (ESE) 2,752 6.0 -6.7°
Sets 13:04:40 0° 114° (ESE) 3,694 6.7 -7.0°
